Zurück zum Katalog

STARLINK-36118

AktivKommunikationVLEO
NORAD 67009·PAYLOAD·🇺🇸 United States

Gestartet Dec 10, 2025 von Vandenberg Space Force Base

Loading…

Nächste Überflüge (nächste 24 Stunden)

TLE

AktuellSource: CelesTrak SupGP

Epoche: Sep 14, 2026, 15:10 UTC

1 67009C 25293G   26257.63243056  .00032143  00000+0  26936-2 0  2571
2 67009  70.0018 338.0147 0003761 273.3176 348.2633 14.98315415    13

Verfolge STARLINK-36118 in Echtzeit mit AllMySat

Download on the App Store